, AK

(GMT )
Deadhorse

Weather History for PASC - June, 2014

Change the Weather History Date:

Saturday, June 7, 2014

  Actual Average Record
Temperature  
Mean Temperature 34 °F -  
Max Temperature 37 °F 37 °F 55 °F (2002)
Min Temperature 30 °F 28 °F 23 °F (1991)
Degree Days  
Heating Degree Days 32    
Moisture  
Dew Point 30 °F    
Average Humidity 89    
Maximum Humidity 100    
Minimum Humidity 76    
Precipitation  
Precipitation 0.18 in - - ()
Sea Level Pressure  
Sea Level Pressure 29.94 in    
Wind  
Wind Speed 6 mph (NNE)    
Max Wind Speed 12 mph    
Max Gust Speed -    
Visibility 6 miles    
Events Snow    
Averages and records for this station are not official NWS values.
T = Trace of Precipitation, MM = Missing Value Source: NWS Daily Summary

Daily Weather History Graph

Daily Weather History Graph

Search for Another Location

Airport or City:

Trip Planner

Search our weather history database for the weather conditions in past years. The results will help you decide how hot, cold, wet, or windy it might be!

Date:

Astronomy

Dec. 31, 1969 Rise Set
Actual Time Sun does not set Sun does not set
Civil Twilight Sun does not set Sun does not set
Nautical Twilight Sun does not set Sun does not set
Astronomical Twilight Sun does not set Sun does not set
Moon 4:38 PM AKDT (6/7) 2:22 AM AKDT (6/7)
Length of Visible Light 24h 00m
Length of Day
24h 00m
Waxing Gibbous, 69% of the Moon is Illuminated
Jun 7
Waxing Gibbous
Jun 12
Full
Jun 19
Last Quarter
Jun 27
New
Jul 5
First Quarter

Hourly Weather History & Observations

Time (AKDT) Temp. Windchill Dew Point Humidity Pressure Visibility Wind Dir Wind Speed Gust Speed Precip Events Conditions
12:31 AM 32.0 °F 24.2 °F 30.9 °F 96% 29.94 in 1.8 mi NNE 9.2 mph - 0.00 in Snow Light Snow
12:53 AM 32.0 °F 23.6 °F 30.9 °F 96% 29.95 in 1.2 mi NNE 10.4 mph - 0.02 in Snow Light Snow
1:08 AM 32.0 °F 24.2 °F 30.9 °F 96% 29.94 in 2.0 mi NNE 9.2 mph - 0.03 in Snow Light Snow
1:53 AM 30.9 °F 21.7 °F 30.0 °F 96% 29.95 in 2.0 mi NE 11.5 mph - 0.07 in Snow Light Snow
2:53 AM 30.9 °F 23.5 °F 30.0 °F 96% 29.94 in 1.2 mi NNE 8.1 mph - 0.06 in Snow Light Snow
3:53 AM 30.9 °F 24.3 °F 28.9 °F 92% 29.96 in 1.0 mi ENE 6.9 mph - 0.02 in Snow Light Snow
4:23 AM 30.0 °F 24.1 °F 30.0 °F 100% 29.95 in 2.0 mi East 5.8 mph - 0.01 in Snow Light Snow
4:53 AM 30.9 °F 26.2 °F 30.0 °F 96% 29.95 in 2.0 mi ENE 4.6 mph - 0.01 in Snow Light Snow
5:53 AM 30.9 °F 26.2 °F 30.0 °F 96% 29.95 in 2.0 mi ENE 4.6 mph - 0.00 in   Overcast
6:53 AM 30.9 °F 27.5 °F 30.0 °F 96% 29.94 in 2.0 mi NE 3.5 mph - N/A   Overcast
7:13 AM 30.9 °F - 30.0 °F 96% 29.94 in 2.0 mi Calm Calm - N/A   Overcast
7:53 AM 32.0 °F 28.7 °F 30.0 °F 92% 29.94 in 2.0 mi North 3.5 mph - N/A   Overcast
8:53 AM 32.0 °F - 30.0 °F 92% 29.94 in 2.0 mi Calm Calm - N/A   Overcast
9:53 AM 32.0 °F 28.7 °F 28.9 °F 88% 29.95 in 2.0 mi WSW 3.5 mph - N/A   Overcast
10:53 AM 32.0 °F 28.7 °F 30.0 °F 92% 29.95 in 2.0 mi West 3.5 mph - N/A   Overcast
11:53 AM 33.1 °F 27.7 °F 30.0 °F 89% 29.95 in 5.0 mi WSW 5.8 mph - N/A   Overcast
12:53 PM 34.0 °F 29.8 °F 30.0 °F 85% 29.95 in 10.0 mi WSW 4.6 mph - N/A   Overcast
1:00 PM 34.0 °F 28.0 °F 30.0 °F 85% 29.95 in 10.0 mi West 6.9 mph - N/A   Overcast
1:53 PM 35.1 °F 31.0 °F 30.9 °F 85% 29.95 in 10.0 mi WSW 4.6 mph - N/A   Overcast
2:53 PM 37.0 °F - 30.0 °F 76% 29.95 in 10.0 mi Calm Calm - N/A   Overcast
3:53 PM 37.0 °F 33.3 °F 30.9 °F 79% 29.95 in 10.0 mi North 4.6 mph - N/A   Overcast
4:18 PM 37.0 °F 31.6 °F 32.0 °F 82% 29.94 in 10.0 mi NNE 6.9 mph - N/A   Overcast
4:53 PM 36.0 °F 31.1 °F 33.1 °F 89% 29.94 in 10.0 mi NNE 5.8 mph - N/A   Overcast
5:53 PM 36.0 °F 33.3 °F 32.0 °F 86% 29.94 in 10.0 mi NNE 3.5 mph - N/A   Overcast
6:53 PM 36.0 °F 31.1 °F 30.9 °F 82% 29.93 in 10.0 mi NNW 5.8 mph - N/A   Overcast
7:53 PM 36.0 °F 30.3 °F 30.9 °F 82% 29.92 in 10.0 mi NNE 6.9 mph - N/A   Overcast
8:53 PM 35.1 °F 32.2 °F 30.9 °F 85% 29.91 in 10.0 mi East 3.5 mph - N/A   Overcast
9:53 PM 35.1 °F 30.1 °F 30.0 °F 82% 29.91 in 10.0 mi ENE 5.8 mph - N/A   Overcast
10:53 PM 35.1 °F - 30.0 °F 82% 29.91 in 10.0 mi Calm Calm - N/A   Mostly Cloudy
11:53 PM 34.0 °F 26.6 °F 28.9 °F 82% 29.91 in 10.0 mi ENE 9.2 mph - N/A   Mostly Cloudy